Location: Lake Harris Campground
(43.9775°N, 74.1317°W)
Time: 19:33:37
(UTC-04:00)

ISS - All Passes

Search period start: 23 April 2017 00:00
Search period end: 03 May 2017 00:00
Orbit: 400 x 409 km, 51.6° (Epoch: 24 April)

Date Brightness Start Highest point End Pass type
(mag) Time Alt. Az. Time Alt. Az. Time Alt. Az.
23 Apr - 09:47:19 10° SSW 09:50:06 27° SE 09:52:54 10° ENE daylight
23 Apr - 11:23:18 10° W 11:26:28 46° NNW 11:29:37 10° NE daylight
23 Apr - 13:00:54 10° WNW 13:03:29 21° N 13:06:04 10° NE daylight
23 Apr - 14:37:50 10° NW 14:40:41 27° NNE 14:43:31 10° ENE daylight
23 Apr - 16:14:09 10° WNW 16:17:24 74° SW 16:20:39 10° SE daylight
24 Apr - 08:56:06 10° S 08:58:03 15° SE 09:00:00 10° E daylight
24 Apr - 10:30:54 10° WSW 10:34:09 76° NNW 10:37:25 10° NE daylight
24 Apr - 12:08:18 10° WNW 12:11:01 24° N 12:13:44 10° NE daylight
24 Apr - 13:45:34 10° NW 13:48:14 23° N 13:50:53 10° ENE daylight
24 Apr - 15:21:54 10° NW 15:25:09 64° NNE 15:28:23 10° ESE daylight
24 Apr - 16:59:01 10° W 17:01:20 18° SW 17:03:38 10° S daylight
25 Apr - 09:38:42 10° SW 09:41:55 61° SE 09:45:08 10° ENE daylight
25 Apr - 11:15:40 10° W 11:18:34 29° NNW 11:21:29 10° NE daylight
25 Apr - 12:53:11 10° NW 12:55:44 21° N 12:58:17 10° NE daylight
25 Apr - 14:29:42 10° NW 14:32:49 40° NNE 14:35:55 10° E daylight
25 Apr - 16:06:17 10° WNW 16:09:14 32° SW 16:12:11 10° SSE daylight
26 Apr - 08:46:46 10° SSW 08:49:43 33° SE 08:52:42 10° ENE daylight
26 Apr - 10:23:03 10° W 10:26:09 40° NNW 10:29:16 10° NE daylight
26 Apr - 12:00:41 10° NW 12:03:14 21° N 12:05:47 10° NE daylight
26 Apr - 13:37:29 10° NW 13:40:24 29° NNE 13:43:19 10° E daylight
26 Apr - 15:13:50 10° WNW 15:17:03 60° SW 15:20:15 10° SE daylight
27 Apr - 07:55:16 10° S 07:57:36 18° SE 07:59:57 10° E daylight
27 Apr - 09:30:34 10° WSW 09:33:48 63° NNW 09:37:02 10° NE daylight
27 Apr - 11:08:03 10° WNW 11:10:43 22° N 11:13:23 10° NE daylight
27 Apr - 12:45:12 10° NW 12:47:55 24° N 12:50:39 10° ENE daylight
27 Apr - 14:21:31 10° WNW 14:24:46 77° NNE 14:28:02 10° ESE daylight
27 Apr - 15:58:59 10° W 16:00:52 15° SW 16:02:46 10° S daylight
28 Apr - 08:38:14 10° SW 08:41:29 76° SE 08:44:45 10° ENE daylight
28 Apr - 10:15:23 10° WNW 10:18:13 27° NNW 10:21:04 10° NE daylight
28 Apr - 11:52:50 10° NW 11:55:24 21° N 11:57:59 10° ENE daylight
28 Apr - 13:29:16 10° NW 13:32:26 47° NNE 13:35:35 10° E daylight
28 Apr - 15:05:58 10° WNW 15:08:45 26° SW 15:11:32 10° SSE daylight
29 Apr - 07:46:09 10° SSW 07:49:15 40° SE 07:52:20 10° ENE daylight
29 Apr - 09:22:42 10° W 09:25:45 35° NNW 09:28:47 10° NE daylight
29 Apr - 11:00:20 10° NW 11:02:52 20° N 11:05:24 10° NE daylight
29 Apr - 12:37:01 10° NW 12:40:00 32° NNE 12:42:59 10° E daylight
29 Apr - 14:13:25 10° WNW 14:16:35 48° SW 14:19:43 10° SE daylight
30 Apr - 06:54:26 10° S 06:57:03 22° SE 06:59:40 10° E daylight
30 Apr - 08:30:08 10° WSW 08:33:19 53° NNW 08:36:32 10° NE daylight
30 Apr - 10:07:41 10° WNW 10:10:18 22° N 10:12:54 10° NE daylight
30 Apr - 11:44:43 10° NW 11:47:30 25° NNE 11:50:17 10° ENE daylight
30 Apr - 13:21:01 10° WNW 13:24:17 88° SW 13:27:32 10° ESE daylight
30 Apr - 14:59:00 10° WSW 15:00:17 12° SW 15:01:34 10° SSW daylight
01 May - 06:03:28 10° SSE 06:04:56 13° SE 06:06:25 10° ESE daylight
01 May - 07:37:42 10° WSW 07:40:57 89° NNW 07:44:13 10° ENE daylight
01 May - 09:14:58 10° WNW 09:17:46 25° NNW 09:20:32 10° NE daylight
01 May - 10:52:20 10° NW 10:54:57 22° N 10:57:34 10° ENE daylight
01 May - 12:28:42 10° NW 12:31:55 55° NNE 12:35:07 10° ESE daylight
01 May - 14:05:37 10° W 14:08:10 21° SW 14:10:43 10° S daylight
02 May - 06:45:29 10° SW 06:48:38 50° SE 06:51:49 10° ENE daylight
02 May - 08:22:15 10° W 08:25:14 32° NNW 08:28:13 10° NE daylight
02 May - 09:59:50 10° NW 10:02:22 20° N 10:04:55 10° NE daylight
02 May - 11:36:25 10° NW 11:39:29 36° NNE 11:42:31 10° E daylight
02 May - 13:12:54 10° WNW 13:15:58 38° SW 13:19:00 10° SSE daylight
